SCP
0 0 0 0 0 0 0 0 0 0 0 0 0 0 0 0 0 0 0 0 0 0 0 0 0 0 0
0 0 0 0 0 0 0 0 0 0 0 0 0 0 0 0 0 0 0 0 0 0 0 0 0 0 0
0 0 0 0 0 0 0 0 0 0 0 0 0 0 0 0 0 0 0 0 0 0 0 0 0 0 0
0 0 0 0 0 0 0 0 0 0 0 0 0 0 0 0 0 0 0 0 0 0 0 0 0 0 0
0 0 0 0 0 0 0 0 0 0 0 0 0 0 0 0 0 0 0 0 0 0 0 0 0 0 0
0 0 0 0 0 0 0 0 0 0 0 0 0 0 0 0 0 0 0 0 0 0 0 0 0 0 0
0 0 0 0 0 0 0 0 0 0 0 0 0 0 0 0 0 0 0 0 0 0 0 0 0 0 0
0 0 0 0 0 0 0 0 0 0 0 0 0 0 0 0 0 0 0 0 0 0 0 0 0 0 0
0 0 0 0 0 0 0 0 0 0 0 0 0 0 0 0 0 0 0 0 0 0 0 0 0 0 0
0 0 0 0 0 0 0 0 0 0 0 0 0 0 0 0 0 0 0 0 0 0 0 0 0 0 0
0 0 0 0 0 0 0 0 0 0 0 0 0 0 0 0 0 0 0 0 0 0 0 0 0 0 0
0 0 0 0 0 0 0 0 0 0 0 0 0 0 0 0 0 0 0 0 0 0 0 0 0 0 0
0 0 0 0 0 0 0 0 0 0 0 0 0 0 0 0 0 0 0 0 0 0 0 0 0 0 0
0 0 0 0 0 0 0 0 0 0 0 0 0 0 0 0 0 -0 0 0 0 0 0 0 0 0 0
0 0 0 0 0 0 0 0 0 0 0 0 0 0 0 0 -0 -0 0 0 0 0 0 0 0 0 0
0 0 0 0 0 0 0 0 0 0 0 0 0 0 0 0 0 0 0 0 0 -0 0 0 0 0 0
Wind_Speed_500mb
52 53 57 57 57 58 63 63 65 63 56 55 54 55 55 43 35 35 39 27 35 35 33 35 39 39 32
48 51 56 58 60 57 66 71 77 60 57 55 55 57 59 47 38 37 39 31 34 33 34 36 37 41 34
41 43 49 57 57 59 62 73 79 54 62 62 60 59 59 49 39 43 36 25 36 32 32 35 39 41 34
55 53 49 49 54 51 58 60 64 72 61 67 57 60 65 48 42 47 35 27 32 33 34 36 37 41 37
60 59 54 49 49 48 52 53 55 53 55 60 61 63 64 53 51 48 40 37 36 35 34 34 36 42 39
62 63 64 59 47 49 49 46 51 51 52 57 68 73 71 61 57 54 49 37 36 34 33 34 34 40 37
70 74 66 52 49 51 52 48 45 50 46 46 33 84 76 63 62 57 48 41 38 37 36 33 37 35 33
75 64 43 47 49 50 49 47 43 44 47 49 35 53 50 54 61 54 51 44 38 39 40 36 33 30 30
66 49 44 45 44 47 45 49 42 42 50 50 51 74 66 69 68 61 54 42 37 38 38 36 29 24 29
55 43 49 50 45 42 39 36 38 41 51 58 47 63 74 76 76 68 57 48 36 43 39 28 27 30 31
43 45 48 48 47 40 34 31 30 38 46 55 56 19 77 79 83 78 64 57 41 42 36 31 34 33 29
38 43 43 44 41 39 33 29 26 30 43 54 57 27 66 75 76 73 63 58 51 47 41 39 35 33 30
38 46 46 48 47 39 30 24 22 19 37 52 48 34 59 63 47 68 49 59 52 40 47 44 37 32 31
39 42 48 48 44 36 29 13 14 14 35 50 36 55 70 65 53 29 38 61 60 48 55 53 35 40 35
37 40 43 45 46 41 29 13 6 10 40 50 50 58 68 53 19 51 63 66 71 60 53 49 28 17 45
37 40 44 44 43 28 22 15 5 20 43 39 58 42 72 56 56 61 64 63 70 70 66 49 39 43 37
Wind_Direction_500mb
285 281 275 268 262 260 252 247 244 228 230 235 230 224 217 213 207 206 213 220 195 191 178 174 178 182 183
295 287 281 273 265 258 255 254 247 240 224 230 231 226 217 209 208 213 213 218 195 184 180 178 180 184 189
314 307 288 274 270 261 258 256 259 261 227 224 224 223 215 207 202 210 213 235 187 186 183 181 184 185 187
327 319 310 288 276 266 261 258 258 258 242 226 223 221 214 202 200 205 208 220 196 188 185 183 183 184 185
327 322 314 305 284 273 268 262 256 257 244 218 223 224 204 201 198 201 203 216 207 191 187 184 181 182 186
322 319 313 301 295 279 273 269 257 249 233 224 218 211 202 196 198 199 202 210 204 189 184 184 178 178 184
324 323 317 310 296 286 274 266 258 248 233 226 240 213 196 195 198 200 200 200 196 185 179 174 171 176 179
326 323 324 321 314 307 279 267 254 246 225 220 193 191 200 202 201 202 201 197 191 187 181 175 172 175 177
327 331 330 324 314 308 298 277 248 244 215 208 200 198 210 212 213 203 201 196 190 184 177 170 171 186 188
332 335 327 322 317 310 300 291 247 236 220 211 207 208 222 213 217 200 195 193 188 179 176 170 182 184 185
341 336 332 333 325 314 301 289 269 236 220 217 208 179 208 210 203 202 196 187 180 176 174 172 173 176 170
346 334 346 345 339 327 310 291 268 245 218 211 202 190 190 190 202 204 192 177 174 175 165 161 162 166 177
349 340 342 340 341 338 318 288 261 239 214 197 190 192 204 199 203 204 190 174 161 176 161 159 162 168 170
344 345 340 343 342 337 337 300 236 219 191 180 164 186 185 173 143 135 200 167 171 173 171 163 141 138 145
348 342 348 355 356 8 9 15 238 186 175 163 168 172 169 173 155 184 203 185 173 176 184 171 146 141 116
353 351 358 359 6 6 26 43 74 155 155 165 163 173 179 189 184 189 201 183 178 177 184 186 189 186 148
Wind_Speed_850mb
52 53 57 57 57 58 63 63 65 63 56 55 54 55 55 43 35 35 39 27 35 35 33 35 39 39 32
48 51 56 58 60 57 66 71 77 60 57 55 55 57 59 47 38 37 39 31 34 33 34 36 37 41 34
41 43 49 57 57 59 62 73 79 54 62 62 60 59 59 49 39 43 36 25 36 32 32 35 39 41 34
55 53 49 49 54 51 58 60 64 72 61 67 57 60 65 48 42 47 35 27 32 33 34 36 37 41 37
60 59 54 49 49 48 52 53 55 53 55 60 61 63 64 53 51 48 40 37 36 35 34 34 36 42 39
62 63 64 59 47 49 49 46 51 51 52 57 68 73 71 61 57 54 49 37 36 34 33 34 34 40 37
70 74 66 52 49 51 52 48 45 50 46 46 33 84 76 63 62 57 48 41 38 37 36 33 37 35 33
75 64 43 47 49 50 49 47 43 44 47 49 35 53 50 54 61 54 51 44 38 39 40 36 33 30 30
66 49 44 45 44 47 45 49 42 42 50 50 51 74 66 69 68 61 54 42 37 38 38 36 29 24 29
55 43 49 50 45 42 39 36 38 41 51 58 47 63 74 76 76 68 57 48 36 43 39 28 27 30 31
43 45 48 48 47 40 34 31 30 38 46 55 56 19 77 79 83 78 64 57 41 42 36 31 34 33 29
38 43 43 44 41 39 33 29 26 30 43 54 57 27 66 75 76 73 63 58 51 47 41 39 35 33 30
38 46 46 48 47 39 30 24 22 19 37 52 48 34 59 63 47 68 49 59 52 40 47 44 37 32 31
39 42 48 48 44 36 29 13 14 14 35 50 36 55 70 65 53 29 38 61 60 48 55 53 35 40 35
37 40 43 45 46 41 29 13 6 10 40 50 50 58 68 53 19 51 63 66 71 60 53 49 28 17 45
37 40 44 44 43 28 22 15 5 20 43 39 58 42 72 56 56 61 64 63 70 70 66 49 39 43 37
Wind_Direction_850mb
285 281 275 268 262 260 252 247 244 228 230 235 230 224 217 213 207 206 213 220 195 191 178 174 178 182 183
295 287 281 273 265 258 255 254 247 240 224 230 231 226 217 209 208 213 213 218 195 184 180 178 180 184 189
314 307 288 274 270 261 258 256 259 261 227 224 224 223 215 207 202 210 213 235 187 186 183 181 184 185 187
327 319 310 288 276 266 261 258 258 258 242 226 223 221 214 202 200 205 208 220 196 188 185 183 183 184 185
327 322 314 305 284 273 268 262 256 257 244 218 223 224 204 201 198 201 203 216 207 191 187 184 181 182 186
322 319 313 301 295 279 273 269 257 249 233 224 218 211 202 196 198 199 202 210 204 189 184 184 178 178 184
324 323 317 310 296 286 274 266 258 248 233 226 240 213 196 195 198 200 200 200 196 185 179 174 171 176 179
326 323 324 321 314 307 279 267 254 246 225 220 193 191 200 202 201 202 201 197 191 187 181 175 172 175 177
327 331 330 324 314 308 298 277 248 244 215 208 200 198 210 212 213 203 201 196 190 184 177 170 171 186 188
332 335 327 322 317 310 300 291 247 236 220 211 207 208 222 213 217 200 195 193 188 179 176 170 182 184 185
341 336 332 333 325 314 301 289 269 236 220 217 208 179 208 210 203 202 196 187 180 176 174 172 173 176 170
346 334 346 345 339 327 310 291 268 245 218 211 202 190 190 190 202 204 192 177 174 175 165 161 162 166 177
349 340 342 340 341 338 318 288 261 239 214 197 190 192 204 199 203 204 190 174 161 176 161 159 162 168 170
344 345 340 343 342 337 337 300 236 219 191 180 164 186 185 173 143 135 200 167 171 173 171 163 141 138 145
348 342 348 355 356 8 9 15 238 186 175 163 168 172 169 173 155 184 203 185 173 176 184 171 146 141 116
353 351 358 359 6 6 26 43 74 155 155 165 163 173 179 189 184 189 201 183 178 177 184 186 189 186 148